Location: Newark
(45.6667°N, 4.7833°E)
Time: 19:44:04
(UTC+00:00)

ISS - Visible Passes

Search period start: 23 September 2020 00:00
Search period end: 03 October 2020 00:00
Orbit: 419 x 420 km, 51.6° (Epoch: 24 September)

Date Brightness Start Highest point End Pass type
(mag) Time Alt. Az. Time Alt. Az. Time Alt. Az.
23 Sep -2.5 18:55:03 10° W 18:58:12 37° NNW 19:00:24 17° NE visible
23 Sep -0.6 20:32:34 10° WNW 20:33:22 15° NW 20:33:22 15° NW visible
24 Sep -2.9 18:07:28 10° W 18:10:43 46° NNW 18:14:01 10° NE visible
24 Sep -2.0 19:45:05 10° WNW 19:47:47 28° N 19:47:47 28° N visible
25 Sep -2.2 18:57:30 10° WNW 19:00:31 29° N 19:02:10 19° NE visible
25 Sep -0.4 20:34:41 10° NW 20:35:08 13° NW 20:35:08 13° NW visible
26 Sep -2.3 18:09:54 10° WNW 18:12:58 31° N 18:16:03 10° NE visible
26 Sep -1.9 19:47:16 10° NW 19:49:29 28° NNW 19:49:29 28° NNW visible
27 Sep -2.3 18:59:48 10° WNW 19:02:49 29° N 19:03:50 24° NE visible
27 Sep -0.2 20:36:39 10° WNW 20:36:47 11° WNW 20:36:47 11° WNW visible
28 Sep -2.2 18:12:15 10° WNW 18:15:14 28° N 18:18:10 10° ENE visible
28 Sep -1.8 19:49:15 10° NW 19:51:08 28° NW 19:51:08 28° NW visible
29 Sep -2.9 19:01:49 10° NW 19:05:02 38° NNE 19:05:29 36° NE visible
30 Sep -2.6 18:14:22 10° NW 18:17:27 32° N 18:19:50 15° ENE visible
30 Sep -1.6 19:51:09 10° WNW 19:52:48 26° WNW 19:52:48 26° WNW visible
01 Oct -3.8 19:03:42 10° WNW 19:07:04 68° NNE 19:07:11 67° NE visible
02 Oct -3.3 18:16:15 10° NW 18:19:33 49° NNE 18:21:37 20° E visible
02 Oct -1.2 19:53:12 10° WNW 19:54:35 20° W 19:54:35 20° W visible
